Temperature
12 11 11 12 11 11 11 11 11 11 12 13 13 13 14 14 14 14 14 14 15 15 15 15 15 15 15 16 16 16 16 16 16 16 16 16 16 16
11 11 11 11 11 11 11 11 11 11 11 12 12 13 13 13 13 13 14 14 14 14 15 15 15 15 15 15 16 16 16 16 16 16 16 16 16 16
11 11 11 11 11 11 11 11 11 11 11 11 12 12 12 13 13 13 13 13 14 14 14 15 15 15 15 15 15 16 16 16 16 16 16 16 16 16
11 11 11 11 11 11 11 11 11 11 11 11 11 12 12 12 12 12 13 13 13 13 14 14 14 15 15 15 15 15 15 15 15 16 16 16 16 16
11 11 11 11 11 10 10 10 10 10 10 10 11 11 11 12 12 12 12 12 13 13 13 14 14 14 14 15 15 15 15 15 15 15 15 15 16 16
11 11 11 10 10 10 10 10 10 10 10 10 10 10 11 11 11 11 12 12 12 13 13 13 13 14 14 14 14 15 15 15 15 15 15 15 15 15
11 11 10 10 10 10 10 10 10 10 10 10 10 10 10 11 11 11 11 11 12 12 12 13 13 13 14 14 14 14 14 15 15 15 15 15 15 15
11 11 10 10 10 10 10 10 9 9 9 9 10 10 10 10 10 10 10 11 11 12 12 12 13 13 13 13 14 14 14 14 14 15 15 15 15 15
11 11 10 10 10 10 10 10 9 9 9 9 9 10 10 10 10 10 10 10 10 11 11 12 12 12 13 13 13 13 14 14 14 14 14 15 15 15
11 10 10 10 10 10 9 9 10 10 9 9 9 9 9 10 9 9 9 10 10 11 11 11 12 12 12 12 13 13 13 14 14 14 14 15 15 15
11 10 10 10 10 10 9 9 9 9 9 9 9 9 9 9 9 9 9 9 9 10 10 10 11 11 12 12 12 13 13 13 13 14 14 14 14 14
11 11 10 10 10 9 9 9 9 9 9 9 9 9 9 9 9 9 9 9 9 9 10 10 11 11 11 12 12 12 12 13 13 13 13 14 14 14
11 11 10 10 10 9 9 9 9 9 9 9 9 9 9 9 9 9 9 9 9 9 10 10 10 10 10 11 11 12 12 12 12 12 13 13 13 13
11 11 10 10 10 9 9 9 9 8 8 8 8 8 9 9 9 9 9 9 9 9 9 9 9 10 10 10 10 11 11 11 12 12 12 12 13 13
11 10 10 10 9 9 9 9 8 8 8 8 8 8 9 8 8 8 8 9 9 9 9 9 9 9 9 10 10 10 11 11 11 11 12 12 12 12
11 10 10 10 9 9 9 9 8 8 8 8 8 8 8 8 8 8 8 8 8 9 9 9 9 9 9 9 10 10 10 10 11 11 11 11 11 12
10 10 10 9 9 9 9 9 8 8 8 8 8 8 8 8 8 8 8 8 8 8 9 9 9 9 9 9 10 10 10 10 10 11 11 11 11 11
10 10 10 9 9 9 9 9 8 8 8 8 8 8 8 8 8 8 8 8 8 8 9 9 9 9 9 9 9 10 10 10 10 10 10 11 11 11
10 10 10 9 9 9 9 8 8 8 8 8 8 8 8 8 8 8 8 8 8 8 9 9 9 9 9 9 9 10 10 10 10 10 10 10 11 11
10 10 10 9 9 9 9 8 8 8 8 8 8 8 8 8 8 8 8 8 8 8 8 9 9 9 9 9 10 10 10 10 10 10 10 10 10 10
10 10 9 9 9 9 8 8 8 8 8 8 8 8 8 7 8 8 8 8 8 8 8 9 9 9 9 9 9 9 10 10 10 10 10 10 10 10
10 10 9 9 9 8 8 8 8 8 8 8 8 8 8 8 8 8 8 8 8 8 8 9 9 9 9 9 9 9 9 9 9 9 9 10 10 10
9 9 9 9 9 8 8 8 8 8 8 8 8 8 8 8 8 8 8 8 8 8 8 8 8 8 9 9 9 9 9 9 9 9 9 9 9 10
Wind_Speed
4 4 3 4 3 3 3 4 3 3 4 4 4 4 5 7 8 8 9 10 12 13 15 18 19 21 23 25 27 29 30 31 31 32 32 32 31 30
4 5 4 4 4 4 4 3 4 5 5 4 4 5 5 7 9 9 10 12 13 13 14 17 19 20 21 23 25 27 29 30 31 31 31 31 31 30
5 5 6 5 4 4 4 4 4 4 5 5 4 4 4 6 6 8 9 9 11 14 15 17 18 19 20 22 24 26 28 29 30 30 31 31 30 30
6 6 7 6 5 5 4 5 5 5 5 6 4 4 5 6 6 6 6 8 9 13 15 16 17 18 19 20 22 24 26 28 29 30 30 30 30 29
7 7 7 6 7 6 6 6 5 6 5 5 5 4 4 4 4 5 5 4 7 10 12 13 15 16 17 19 20 22 24 26 28 29 30 30 29 29
7 7 7 7 8 7 6 7 6 6 5 4 5 4 4 4 3 4 5 4 4 5 7 8 10 12 14 17 18 20 22 24 26 27 28 29 29 28
7 7 7 9 11 9 7 7 6 5 5 5 5 4 4 4 4 3 4 4 4 3 3 3 4 4 6 11 15 18 21 23 24 26 27 27 27 27
8 8 8 9 11 12 13 12 10 8 8 6 6 6 7 6 4 4 3 3 4 3 2 4 3 4 4 6 10 15 18 20 22 24 24 25 25 25
8 8 8 9 9 8 10 12 11 14 14 9 9 9 8 7 6 5 5 5 5 4 2 4 3 4 4 6 10 12 15 17 19 21 22 23 23 24
9 9 9 10 10 9 9 9 9 9 10 9 9 10 10 9 8 8 7 6 5 4 4 4 3 3 3 3 7 9 12 14 16 18 20 21 21 21
10 9 9 10 13 13 9 9 10 10 11 14 14 13 14 14 9 5 4 4 5 5 4 4 3 2 2 3 4 6 8 11 13 15 16 18 19 18
8 8 12 12 12 11 8 8 10 10 8 8 8 8 9 10 12 9 8 7 5 4 5 5 4 3 2 2 2 2 3 5 9 12 14 16 18 13
7 7 8 12 13 13 10 8 12 10 7 7 7 7 6 6 7 8 8 8 8 7 5 4 4 3 3 2 1 2 2 2 3 5 11 15 18 14
8 8 8 12 13 13 9 11 14 10 6 6 6 7 7 7 7 8 9 9 9 10 8 7 5 5 4 3 3 2 2 2 3 3 5 10 12 13
9 11 12 13 12 10 12 14 11 7 6 7 8 9 8 8 6 5 6 7 8 9 10 8 7 6 5 5 4 3 3 3 4 5 5 6 6 8
8 9 11 12 11 11 11 9 7 7 8 9 8 8 6 5 6 6 5 5 5 6 7 10 9 9 7 6 5 5 5 5 5 6 6 5 5 8
4 3 4 5 6 6 7 7 7 7 8 9 8 8 7 7 7 6 6 6 6 6 6 5 6 7 7 6 6 6 6 5 6 7 6 6 6 7
5 5 6 7 8 8 8 8 7 8 9 9 9 9 8 8 7 6 6 6 8 8 7 6 5 4 3 4 8 7 7 7 6 8 6 7 7 7
6 7 8 8 8 8 8 8 8 8 8 8 9 9 8 8 7 7 6 7 7 7 7 6 7 7 8 7 6 9 8 7 7 8 8 6 7 8
7 9 9 9 9 8 8 8 8 7 7 7 8 8 8 8 8 7 7 8 8 7 6 6 8 9 10 7 5 5 10 8 8 9 7 4 3 6
8 9 9 9 9 8 8 8 8 7 7 7 7 8 8 8 8 8 7 10 9 7 8 9 9 10 5 4 4 3 4 8 9 7 7 6 5 6
9 9 9 9 8 8 7 7 7 7 7 7 7 7 7 7 8 8 8 7 7 7 8 6 5 6 6 7 7 6 5 4 4 7 7 5 6 8
9 8 8 8 8 7 7 7 8 7 7 7 7 7 7 7 7 7 7 7 6 7 6 5 5 6 6 7 6 5 7 7 5 5 2 4 3 6
Wind_Direction
264 262 252 254 245 232 213 196 204 263 283 278 286 291 294 290 281 271 262 259 253 251 247 244 242 240 235 230 227 226 224 221 220 220 221 221 221 223
259 262 263 259 260 252 238 223 201 209 250 261 260 274 290 295 290 279 268 266 261 256 252 249 245 241 237 233 228 225 224 222 221 220 220 221 221 221
266 258 259 257 257 259 251 242 231 208 243 269 260 272 278 283 292 287 278 268 266 261 254 250 247 243 239 235 231 227 224 222 221 220 220 220 221 221
257 257 260 261 256 255 250 249 246 230 226 261 275 274 268 271 272 277 275 273 261 264 259 254 249 246 242 238 234 229 226 223 221 220 219 220 220 221
247 246 253 255 259 257 253 251 251 255 229 237 261 264 270 276 284 284 277 270 265 262 261 258 254 248 244 241 237 233 229 226 223 221 220 219 219 219
250 247 248 244 247 252 256 250 249 253 248 244 254 263 267 276 271 276 292 284 275 271 262 261 257 254 250 245 239 235 231 227 224 222 220 219 218 218
255 254 253 252 250 248 253 246 241 240 242 243 251 260 265 272 263 257 267 287 284 254 262 265 255 251 252 249 242 237 232 227 224 222 221 219 218 218
252 258 262 263 263 262 262 257 239 234 233 234 240 242 250 247 248 248 253 276 285 266 238 269 245 256 251 245 243 238 232 227 223 220 219 218 216 215
241 249 262 264 263 261 268 271 263 250 234 224 230 237 240 236 234 247 242 236 243 253 244 266 252 257 261 254 247 240 233 228 222 218 215 214 212 211
239 240 246 258 263 256 259 265 260 258 247 234 228 236 237 234 226 233 239 246 256 253 211 244 251 252 266 263 253 241 233 225 219 216 213 210 208 206
246 244 241 250 258 258 253 256 263 266 261 247 235 238 241 241 228 225 232 232 257 259 213 214 235 243 256 261 260 243 230 220 214 211 207 204 200 196
254 250 247 248 256 257 242 243 255 261 261 265 256 255 252 252 241 221 217 222 230 251 225 201 210 200 247 253 239 227 221 216 206 204 202 196 188 185
250 253 248 248 250 252 244 233 244 250 253 248 252 256 255 250 244 228 217 214 218 231 223 187 198 195 208 236 247 218 203 196 186 193 194 189 185 181
243 248 247 248 251 255 253 244 249 255 248 246 250 252 250 249 245 235 226 222 222 226 216 192 200 199 196 210 229 212 200 188 181 184 180 178 181 183
242 246 251 254 257 259 255 253 252 242 232 240 246 248 243 242 244 244 242 232 232 235 228 206 205 206 202 206 203 198 198 204 191 184 181 182 179 171
246 256 259 259 254 253 259 260 242 229 227 237 243 246 243 238 239 234 237 229 230 243 231 216 208 204 212 210 200 202 194 191 188 187 177 180 176 178
227 248 254 256 255 255 255 252 244 235 234 237 239 243 241 240 242 231 226 219 221 231 231 221 214 210 206 195 202 207 199 199 192 182 178 184 190 185
196 237 249 250 252 254 256 258 249 239 236 234 234 235 236 236 239 232 220 218 225 228 223 210 195 195 206 227 207 202 201 199 191 185 180 188 194 188
210 241 249 251 251 250 250 251 252 245 234 231 233 233 232 232 230 229 225 224 227 225 218 202 195 198 213 223 218 200 196 192 184 191 192 188 193 188
229 242 248 249 248 248 250 250 250 247 237 233 232 231 227 226 228 229 225 223 224 220 215 204 201 203 211 209 197 200 194 187 188 194 189 170 149 151
234 240 246 247 247 246 248 248 245 243 238 230 230 229 224 220 226 227 226 225 219 213 215 217 215 201 184 155 167 190 191 191 185 182 173 165 162 166
243 243 246 245 245 244 246 248 246 242 238 234 232 229 222 217 223 226 222 217 216 215 218 216 188 175 178 192 199 191 179 165 150 141 144 154 169 182
242 244 244 245 244 242 242 243 243 245 239 233 231 228 221 219 219 219 217 214 211 213 208 200 188 187 195 195 191 184 176 170 161 150 102 37 145 155
Height
1524 1524 1524 1524 1524 1523 1523 1523 1523 1520 1518 1519 1520 1520 1520 1520 1520 1519 1519 1519 1520 1520 1521 1523 1525 1527 1530 1533 1536 1539 1543 1547 1551 1555 1559 1562 1566 1569
1521 1520 1520 1520 1519 1519 1519 1519 1518 1517 1515 1514 1515 1515 1515 1515 1515 1515 1515 1515 1515 1515 1516 1517 1519 1521 1523 1525 1528 1531 1535 1539 1543 1547 1551 1555 1559 1562
1518 1517 1516 1516 1515 1515 1514 1514 1514 1513 1511 1510 1510 1510 1510 1510 1510 1510 1510 1510 1510 1510 1511 1511 1512 1514 1516 1518 1520 1523 1526 1530 1534 1539 1543 1547 1551 1555
1514 1513 1512 1512 1511 1510 1510 1509 1508 1508 1507 1505 1505 1505 1505 1505 1505 1504 1505 1504 1504 1505 1505 1505 1506 1507 1509 1511 1513 1515 1518 1522 1526 1530 1535 1539 1543 1547
1510 1509 1508 1507 1506 1505 1504 1504 1503 1503 1502 1501 1499 1500 1499 1500 1499 1499 1499 1499 1499 1499 1499 1500 1500 1501 1502 1503 1505 1508 1511 1514 1518 1522 1526 1531 1535 1539
1505 1504 1503 1502 1501 1500 1499 1498 1498 1497 1496 1495 1494 1494 1494 1494 1494 1493 1493 1493 1493 1493 1493 1494 1494 1494 1495 1496 1498 1500 1503 1506 1509 1513 1517 1522 1527 1531
1500 1499 1498 1497 1495 1494 1493 1492 1492 1491 1491 1490 1489 1489 1489 1489 1489 1488 1488 1487 1487 1488 1487 1488 1488 1488 1489 1490 1491 1493 1495 1498 1501 1505 1509 1513 1518 1523
1495 1494 1493 1491 1490 1489 1488 1487 1486 1485 1485 1484 1484 1483 1483 1483 1483 1483 1483 1482 1482 1483 1482 1482 1482 1482 1483 1484 1484 1486 1488 1490 1493 1497 1501 1505 1510 1515
1489 1488 1487 1485 1484 1482 1481 1480 1480 1479 1479 1479 1477 1477 1477 1478 1478 1477 1477 1477 1477 1478 1478 1476 1477 1476 1477 1477 1479 1480 1481 1483 1486 1489 1493 1498 1502 1508
1484 1482 1481 1479 1478 1477 1475 1474 1473 1473 1473 1472 1471 1471 1471 1472 1472 1472 1471 1471 1471 1472 1472 1471 1471 1471 1472 1472 1473 1474 1475 1476 1479 1482 1486 1490 1495 1500
1478 1477 1475 1473 1472 1471 1469 1467 1466 1466 1466 1465 1465 1465 1465 1465 1465 1465 1465 1465 1464 1465 1467 1466 1466 1466 1466 1466 1468 1469 1470 1471 1473 1476 1480 1484 1488 1493
1472 1470 1469 1467 1465 1464 1463 1461 1460 1459 1459 1458 1458 1458 1458 1458 1458 1459 1459 1459 1459 1459 1460 1461 1461 1462 1461 1461 1463 1464 1465 1466 1468 1471 1474 1478 1482 1486
1465 1464 1462 1461 1459 1458 1456 1455 1454 1453 1452 1451 1450 1450 1450 1450 1451 1451 1452 1452 1453 1453 1455 1457 1457 1457 1458 1457 1458 1459 1461 1462 1464 1466 1469 1472 1476 1480
1459 1457 1455 1454 1452 1451 1449 1448 1447 1446 1445 1444 1443 1442 1442 1442 1443 1444 1445 1445 1446 1447 1449 1451 1451 1453 1453 1454 1454 1455 1457 1458 1460 1462 1465 1467 1471 1475
1452 1450 1449 1447 1445 1444 1442 1441 1440 1439 1437 1436 1435 1435 1435 1435 1436 1437 1437 1438 1439 1441 1442 1444 1445 1447 1448 1449 1450 1451 1452 1454 1456 1458 1460 1463 1466 1470
1446 1444 1442 1440 1438 1436 1435 1434 1433 1431 1430 1429 1428 1428 1428 1428 1429 1429 1430 1431 1432 1433 1436 1438 1439 1441 1443 1444 1446 1447 1449 1450 1452 1454 1456 1459 1462 1466
1439 1437 1435 1433 1431 1429 1428 1426 1425 1424 1422 1421 1421 1420 1420 1421 1421 1423 1424 1425 1426 1427 1429 1432 1434 1435 1437 1439 1440 1442 1444 1446 1448 1450 1452 1455 1457 1461
1432 1429 1427 1425 1423 1421 1420 1418 1417 1416 1415 1414 1413 1413 1413 1414 1414 1416 1417 1418 1419 1420 1423 1425 1428 1430 1432 1433 1435 1437 1439 1441 1444 1446 1449 1451 1453 1458
1424 1422 1420 1418 1416 1414 1413 1411 1410 1409 1408 1407 1406 1406 1406 1407 1408 1408 1410 1411 1412 1414 1416 1419 1422 1424 1426 1427 1428 1432 1434 1436 1439 1442 1444 1447 1450 1454
1417 1415 1413 1411 1409 1407 1406 1404 1403 1402 1401 1400 1400 1399 1400 1400 1401 1402 1403 1404 1406 1408 1410 1412 1415 1417 1420 1422 1424 1426 1429 1431 1434 1436 1439 1443 1447 1451
1410 1408 1406 1404 1402 1400 1399 1398 1397 1395 1394 1394 1393 1393 1393 1394 1394 1395 1397 1398 1400 1402 1403 1405 1408 1412 1415 1418 1420 1421 1424 1427 1429 1432 1435 1438 1442 1445
1402 1400 1399 1397 1395 1394 1393 1392 1390 1389 1388 1388 1387 1387 1387 1388 1388 1389 1391 1392 1394 1395 1397 1400 1404 1406 1409 1411 1413 1416 1420 1422 1425 1428 1431 1434 1436 1440
1395 1393 1392 1390 1389 1388 1386 1385 1384 1383 1383 1382 1382 1382 1382 1382 1383 1384 1385 1387 1389 1391 1392 1395 1398 1401 1403 1406 1409 1412 1415 1418 1421 1424 1427 1430 1434 1438